QPF
0.00 0.00 0.00 0.00 0.00 0.00 0.01 0.02 0.04 0.04 0.06 0.02 0.00 0.00 0.00 0.00 0.00 0.00 0.00 0.00 0.00 0.00 0.00 0.00 0.00 0.00 0.00 0.00 0.00 0.00 0.00 0.00 0.00 0.00 0.00 0.00 0.00 0.00 0.00 0.00 0.00 0.00 0.00 0.00 0.00
0.00 0.00 0.00 0.00 0.00 0.00 0.00 0.00 0.00 0.03 0.03 0.01 0.01 0.00 0.00 0.00 0.00 0.00 0.00 0.00 0.00 0.00 0.00 0.00 0.00 0.00 0.00 0.00 0.00 0.00 0.00 0.00 0.00 0.00 0.00 0.00 0.00 0.00 0.00 0.00 0.00 0.00 0.00 0.00 0.00
0.00 0.00 0.00 0.00 0.00 0.00 0.00 0.00 0.00 0.00 0.00 0.00 0.00 0.00 0.00 0.00 0.00 0.00 0.00 0.00 0.00 0.00 0.00 0.00 0.00 0.00 0.00 0.00 0.00 0.00 0.00 0.00 0.00 0.00 0.00 0.00 0.00 0.00 0.00 0.00 0.00 0.00 0.00 0.00 0.00
0.00 0.00 0.00 0.00 0.00 0.00 0.00 0.00 0.00 0.00 0.00 0.00 0.00 0.00 0.00 0.00 0.00 0.00 0.00 0.00 0.00 0.00 0.00 0.00 0.00 0.00 0.00 0.00 0.00 0.00 0.00 0.00 0.00 0.00 0.00 0.00 0.00 0.00 0.00 0.00 0.00 0.00 0.00 0.00 0.00
0.00 0.00 0.00 0.00 0.00 0.00 0.00 0.00 0.00 0.00 0.00 0.00 0.00 0.00 0.00 0.00 0.00 0.00 0.00 0.00 0.00 0.00 0.00 0.00 0.00 0.00 0.00 0.00 0.00 0.00 0.00 0.00 0.00 0.00 0.00 0.00 0.00 0.00 0.00 0.00 0.00 0.00 0.00 0.00 0.00
0.00 0.00 0.00 0.00 0.00 0.00 0.00 0.00 0.00 0.00 0.00 0.00 0.00 0.00 0.00 0.00 0.00 0.00 0.00 0.00 0.00 0.00 0.00 0.00 0.00 0.00 0.00 0.00 0.00 0.00 0.00 0.00 0.00 0.00 0.00 0.00 0.00 0.00 0.00 0.00 0.00 0.00 0.00 0.00 0.00
0.00 0.00 0.00 0.00 0.00 0.00 0.00 0.00 0.00 0.00 0.00 0.00 0.00 0.00 0.00 0.00 0.00 0.00 0.00 0.00 0.00 0.00 0.00 0.00 0.00 0.00 0.00 0.00 0.00 0.00 0.00 0.00 0.00 0.00 0.00 0.00 0.00 0.00 0.00 0.00 0.00 0.00 0.00 0.00 0.00
0.00 0.00 0.00 0.00 0.00 0.00 0.00 0.00 0.00 0.00 0.00 0.00 0.00 0.00 0.00 0.00 0.00 0.00 0.00 0.00 0.00 0.00 0.00 0.00 0.00 0.00 0.00 0.00 0.00 0.00 0.00 0.00 0.00 0.00 0.00 0.00 0.00 0.00 0.00 0.00 0.00 0.00 0.00 0.00 0.00
0.00 0.00 0.00 0.00 0.00 0.00 0.00 0.00 0.00 0.00 0.00 0.00 0.00 0.00 0.00 0.00 0.00 0.00 0.00 0.00 0.00 0.00 0.00 0.00 0.00 0.00 0.00 0.00 0.00 0.00 0.00 0.00 0.00 0.00 0.00 0.00 0.00 0.00 0.00 0.00 0.00 0.00 0.00 0.00 0.00
0.00 0.00 0.00 0.00 0.00 0.00 0.00 0.00 0.00 0.00 0.00 0.00 0.00 0.01 0.01 0.00 0.00 0.00 0.00 0.00 0.00 0.00 0.00 0.00 0.00 0.00 0.00 0.00 0.00 0.00 0.00 0.00 0.00 0.00 0.00 0.00 0.00 0.00 0.00 0.00 0.00 0.00 0.00 0.00 0.00
0.00 0.00 0.00 0.00 0.00 0.00 0.00 0.00 0.00 0.00 0.00 0.00 0.00 0.00 0.01 0.00 0.00 0.00 0.00 0.00 0.00 0.00 0.00 0.00 0.00 0.00 0.00 0.00 0.00 0.00 0.00 0.00 0.00 0.00 0.00 0.00 0.00 0.00 0.00 0.00 0.00 0.00 0.00 0.00 0.00
0.00 0.00 0.00 0.00 0.00 0.00 0.00 0.00 0.00 0.00 0.00 0.00 0.00 0.00 0.00 0.00 0.00 0.00 0.01 0.00 0.00 0.00 0.00 0.00 0.00 0.00 0.00 0.00 0.00 0.00 0.00 0.00 0.00 0.00 0.00 0.00 0.00 0.00 0.00 0.00 0.00 0.00 0.00 0.00 0.00
0.00 0.00 0.00 0.00 0.00 0.00 0.00 0.00 0.00 0.00 0.00 0.00 0.00 0.00 0.00 0.00 0.00 0.01 0.02 0.01 0.00 0.00 0.00 0.00 0.00 0.00 0.00 0.00 0.00 0.00 0.00 0.00 0.00 0.00 0.00 0.00 0.00 0.00 0.00 0.00 0.00 0.00 0.00 0.00 0.00
0.00 0.00 0.00 0.00 0.00 0.00 0.00 0.00 0.00 0.00 0.00 0.00 0.00 0.00 0.00 0.00 0.01 0.00 0.06 0.01 0.00 0.00 0.00 0.00 0.00 0.00 0.00 0.00 0.00 0.00 0.00 0.00 0.00 0.00 0.00 0.00 0.00 0.00 0.00 0.00 0.00 0.00 0.00 0.00 0.00
0.00 0.00 0.00 0.00 0.00 0.00 0.00 0.00 0.00 0.00 0.00 0.00 0.00 0.00 0.00 0.00 0.01 0.00 0.07 0.00 0.02 0.00 0.00 0.00 0.00 0.00 0.00 0.00 0.00 0.00 0.00 0.00 0.00 0.00 0.00 0.00 0.00 0.00 0.00 0.00 0.00 0.00 0.00 0.00 0.00
0.00 0.00 0.00 0.00 0.00 0.00 0.00 0.00 0.00 0.00 0.00 0.00 0.00 0.00 0.00 0.00 0.00 0.00 0.00 0.00 0.02 0.01 0.00 0.00 0.00 0.00 0.00 0.00 0.00 0.00 0.00 0.00 0.00 0.00 0.00 0.00 0.00 0.00 0.00 0.00 0.00 0.00 0.00 0.00 0.00
0.00 0.00 0.00 0.00 0.00 0.00 0.00 0.00 0.00 0.00 0.00 0.00 0.00 0.00 0.00 0.00 0.00 0.00 0.00 0.00 0.02 0.02 0.00 0.00 0.00 0.00 0.00 0.00 0.00 0.00 0.00 0.00 0.00 0.00 0.00 0.00 0.00 0.00 0.00 0.00 0.00 0.00 0.00 0.00 0.00
0.00 0.00 0.00 0.00 0.00 0.00 0.00 0.00 0.00 0.00 0.00 0.00 0.00 0.00 0.00 0.00 0.00 0.00 0.00 0.00 0.00 0.01 0.00 0.00 0.00 0.00 0.00 0.00 0.00 0.00 0.00 0.00 0.00 0.00 0.00 0.00 0.00 0.00 0.00 0.00 0.00 0.00 0.00 0.00 0.00
0.00 0.00 0.00 0.00 0.00 0.00 0.00 0.00 0.00 0.00 0.00 0.00 0.00 0.00 0.00 0.00 0.00 0.00 0.00 0.00 0.00 0.00 0.00 0.00 0.00 0.00 0.00 0.00 0.00 0.00 0.00 0.00 0.00 0.00 0.00 0.00 0.00 0.00 0.00 0.00 0.00 0.00 0.00 0.00 0.00
0.00 0.00 0.00 0.00 0.00 0.00 0.00 0.00 0.00 0.00 0.00 0.00 0.00 0.00 0.00 0.00 0.00 0.00 0.00 0.00 0.00 0.00 0.00 0.00 0.00 0.00 0.00 0.00 0.00 0.00 0.00 0.00 0.00 0.00 0.00 0.00 0.00 0.00 0.00 0.00 0.00 0.00 0.00 0.00 0.00
0.00 0.00 0.00 0.00 0.00 0.00 0.00 0.00 0.00 0.00 0.00 0.00 0.00 0.00 0.00 0.00 0.00 0.00 0.00 0.00 0.00 0.00 0.00 0.00 0.00 0.00 0.00 0.00 0.00 0.00 0.00 0.00 0.00 0.00 0.00 0.00 0.00 0.00 0.00 0.00 0.00 0.00 0.00 0.00 0.00
0.00 0.00 0.00 0.00 0.00 0.00 0.00 0.00 0.00 0.00 0.00 0.00 0.00 0.00 0.00 0.00 0.00 0.00 0.00 0.00 0.00 0.00 0.00 0.00 0.00 0.00 0.00 0.00 0.00 0.00 0.00 0.00 0.00 0.00 0.00 0.00 0.00 0.00 0.00 0.00 0.00 0.00 0.00 0.00 0.00
0.00 0.00 0.00 0.00 0.00 0.00 0.00 0.00 0.00 0.00 0.00 0.00 0.00 0.00 0.00 0.00 0.00 0.00 0.00 0.00 0.00 0.00 0.00 0.00 0.00 0.00 0.00 0.00 0.00 0.00 0.00 0.00 0.00 0.00 0.00 0.00 0.00 0.00 0.00 0.00 0.00 0.00 0.00 0.00 0.00
0.00 0.00 0.00 0.00 0.00 0.00 0.00 0.00 0.00 0.00 0.00 0.00 0.00 0.00 0.00 0.00 0.00 0.00 0.00 0.00 0.00 0.00 0.00 0.00 0.00 0.00 0.00 0.00 0.00 0.00 0.00 0.00 0.00 0.00 0.00 0.00 0.00 0.00 0.00 0.00 0.00 0.00 0.00 0.00 0.00
0.00 0.00 0.00 0.00 0.00 0.00 0.00 0.00 0.00 0.00 0.00 0.00 0.00 0.00 0.00 0.00 0.00 0.00 0.00 0.00 0.00 0.00 0.00 0.00 0.00 0.00 0.00 0.00 0.00 0.00 0.00 0.00 0.00 0.00 0.00 0.00 0.00 0.00 0.00 0.00 0.00 0.00 0.00 0.00 0.00
0.00 0.00 0.00 0.00 0.00 0.00 0.00 0.00 0.00 0.00 0.00 0.00 0.00 0.00 0.00 0.00 0.00 0.00 0.00 0.00 0.00 0.00 0.00 0.00 0.00 0.00 0.00 0.00 0.00 0.00 0.00 0.00 0.00 0.00 0.00 0.00 0.00 0.00 0.00 0.00 0.00 0.00 0.00 0.00 0.00
0.00 0.00 0.00 0.00 0.00 0.00 0.00 0.00 0.00 0.00 0.00 0.00 0.00 0.00 0.00 0.00 0.00 0.00 0.00 0.00 0.00 0.00 0.00 0.00 0.00 0.00 0.00 0.00 0.00 0.00 0.00 0.00 0.00 0.00 0.00 0.00 0.00 0.00 0.00 0.00 0.00 0.00 0.00 0.00 0.00
MSLP
1017.04 1016.88 1016.64 1016.55 1016.40 1016.14 1016.00 1015.78 1015.70 1015.94 1015.98 1016.04 1016.17 1016.23 1016.15 1016.01 1015.89 1015.87 1015.67 1014.38 1014.24 1013.91 1013.93 1014.00 1013.94 1014.24 1014.26 1014.28 1014.28 1014.63 1015.63 1016.00 1015.36 1015.04 1013.94 1013.49 1013.52 1013.65 1013.78 1014.26 1014.63 1014.88 1015.23 1015.39 1015.57
1017.14 1016.92 1016.74 1016.57 1016.33 1016.15 1016.05 1016.00 1015.91 1016.06 1016.11 1016.15 1016.15 1016.17 1016.07 1015.91 1015.86 1015.44 1014.26 1013.88 1013.92 1013.84 1014.05 1014.08 1014.10 1014.40 1014.65 1014.38 1014.41 1014.70 1015.48 1015.18 1014.54 1014.32 1014.00 1013.76 1013.62 1013.72 1014.06 1014.44 1014.86 1015.13 1015.30 1015.49 1015.81
1017.18 1016.99 1016.78 1016.60 1016.41 1016.19 1016.00 1015.94 1015.91 1015.98 1016.08 1016.11 1016.12 1016.17 1016.13 1016.02 1015.91 1014.25 1013.22 1013.44 1013.60 1013.70 1014.15 1014.26 1014.25 1014.43 1014.73 1014.50 1014.44 1014.61 1014.86 1014.42 1014.22 1014.17 1014.12 1014.04 1013.95 1013.80 1014.09 1014.66 1014.46 1014.74 1015.25 1015.80 1016.18
1017.19 1016.90 1016.70 1016.63 1016.47 1016.27 1016.12 1015.99 1015.93 1015.92 1015.99 1016.08 1016.12 1016.17 1016.12 1016.18 1015.57 1013.68 1013.42 1013.46 1013.43 1013.75 1014.35 1014.44 1014.41 1014.64 1014.72 1014.57 1014.23 1014.44 1014.31 1014.27 1014.25 1014.26 1014.30 1014.25 1014.02 1013.99 1014.09 1013.87 1013.94 1014.32 1014.94 1015.75 1016.33
1017.02 1016.82 1016.72 1016.56 1016.30 1016.22 1016.19 1016.07 1015.96 1015.88 1015.94 1016.02 1016.10 1016.15 1016.17 1016.08 1014.87 1013.57 1013.39 1013.47 1013.52 1013.91 1014.25 1014.41 1014.42 1014.39 1014.50 1014.34 1014.35 1014.38 1014.46 1014.38 1014.43 1014.48 1014.52 1014.37 1014.40 1014.40 1013.83 1013.86 1014.23 1014.62 1015.24 1015.84 1016.38
1017.12 1016.82 1016.60 1016.45 1016.22 1016.10 1015.94 1015.95 1015.74 1015.72 1015.83 1015.88 1016.03 1016.06 1016.19 1015.49 1013.69 1013.60 1013.46 1013.36 1013.58 1013.86 1014.07 1014.16 1014.15 1014.04 1014.21 1014.33 1014.46 1014.48 1014.69 1014.75 1014.65 1014.72 1014.79 1014.81 1014.74 1014.67 1013.86 1013.93 1014.54 1015.03 1015.49 1016.01 1016.45
1016.97 1016.88 1016.63 1016.42 1016.09 1016.04 1015.88 1015.82 1015.48 1015.43 1015.58 1015.58 1015.63 1015.86 1015.85 1014.57 1013.51 1013.48 1013.54 1013.27 1013.32 1013.51 1013.90 1013.83 1013.90 1014.06 1014.10 1014.47 1014.58 1014.90 1015.23 1015.14 1015.05 1015.02 1015.04 1015.10 1015.03 1014.28 1014.17 1014.44 1014.95 1015.46 1015.86 1016.29 1016.55
1016.85 1016.74 1016.52 1016.24 1015.89 1015.84 1015.71 1015.63 1015.37 1015.29 1015.43 1015.42 1015.49 1015.74 1015.13 1013.47 1013.45 1013.42 1013.53 1013.32 1013.16 1013.22 1013.28 1013.32 1013.62 1014.11 1014.47 1014.55 1014.91 1015.47 1015.68 1015.80 1015.56 1015.41 1015.48 1015.56 1015.10 1014.33 1014.53 1014.85 1015.32 1015.74 1016.20 1016.33 1016.30
1016.90 1016.74 1016.43 1016.01 1015.72 1015.63 1015.41 1015.27 1015.25 1015.12 1015.04 1015.18 1015.51 1015.39 1014.38 1013.04 1013.36 1013.62 1013.62 1013.14 1013.16 1013.09 1013.13 1013.31 1013.62 1014.58 1014.87 1015.19 1016.07 1016.41 1016.35 1016.20 1015.97 1016.03 1016.04 1016.13 1015.61 1014.70 1014.93 1015.34 1015.61 1015.81 1016.07 1016.28 1016.29
1016.83 1016.66 1016.33 1015.87 1015.42 1015.42 1015.16 1014.95 1015.14 1015.27 1015.37 1015.26 1015.42 1015.90 1013.97 1013.47 1013.63 1013.75 1013.31 1012.95 1012.93 1013.08 1013.50 1013.75 1014.48 1015.23 1015.82 1015.95 1016.34 1016.45 1016.55 1016.37 1016.30 1016.69 1016.62 1016.70 1015.75 1015.27 1015.19 1015.48 1015.65 1015.80 1016.03 1016.26 1016.23
1016.69 1016.51 1016.33 1015.82 1015.47 1015.23 1015.04 1015.19 1015.79 1015.92 1015.40 1015.25 1015.12 1014.95 1014.24 1013.84 1013.87 1013.54 1013.05 1012.78 1013.00 1013.38 1014.15 1014.77 1015.48 1015.90 1015.97 1015.94 1015.68 1015.87 1016.26 1016.52 1016.83 1017.10 1017.21 1017.17 1016.56 1015.26 1015.20 1015.33 1015.14 1015.34 1015.60 1015.66 1015.72
1016.48 1016.25 1016.14 1015.70 1015.36 1015.15 1015.25 1015.48 1015.72 1015.98 1015.91 1015.33 1015.01 1014.66 1014.44 1014.24 1013.80 1013.42 1012.96 1013.99 1014.17 1014.72 1014.93 1015.82 1016.33 1016.68 1016.64 1016.33 1016.24 1016.33 1016.75 1017.13 1017.45 1017.61 1017.74 1017.89 1016.97 1015.18 1014.80 1014.48 1014.25 1014.47 1014.98 1015.11 1015.38
1016.40 1015.96 1015.76 1015.49 1015.30 1015.32 1015.61 1015.60 1015.61 1015.74 1015.74 1015.09 1014.93 1014.88 1014.68 1014.39 1014.33 1014.08 1014.40 1015.17 1015.39 1015.59 1016.04 1016.46 1017.26 1017.05 1016.99 1017.24 1017.36 1017.64 1017.63 1017.89 1018.22 1018.48 1018.80 1018.72 1017.53 1015.71 1014.16 1013.98 1013.85 1014.17 1014.47 1014.87 1015.17
1016.26 1015.97 1015.53 1015.17 1015.48 1015.64 1015.75 1015.70 1015.71 1015.68 1015.97 1015.18 1014.70 1014.54 1014.65 1014.69 1015.56 1015.14 1015.46 1016.37 1015.91 1016.43 1017.24 1017.74 1017.53 1017.53 1017.80 1018.39 1018.69 1018.72 1018.79 1018.87 1019.38 1019.80 1020.57 1020.24 1018.88 1016.70 1014.66 1013.94 1013.92 1013.94 1014.47 1014.81 1015.09
1016.09 1015.80 1015.55 1014.91 1015.65 1015.99 1016.16 1015.84 1015.71 1015.82 1016.39 1015.64 1014.84 1014.63 1014.66 1014.88 1015.30 1016.49 1016.01 1016.53 1016.96 1017.47 1018.00 1018.93 1018.72 1018.72 1018.79 1019.41 1019.45 1019.86 1019.88 1020.37 1021.01 1021.79 1022.01 1021.62 1020.76 1016.80 1015.29 1014.23 1013.90 1014.06 1014.35 1014.72 1015.17
1015.96 1015.62 1015.46 1015.62 1015.83 1015.94 1015.97 1015.89 1016.09 1016.86 1016.79 1015.74 1015.10 1014.90 1015.16 1015.25 1015.65 1016.31 1017.11 1017.33 1017.31 1017.87 1018.21 1019.09 1019.32 1019.48 1019.79 1020.12 1020.16 1020.61 1021.11 1021.81 1022.78 1023.51 1023.62 1022.59 1021.56 1018.16 1015.64 1014.35 1014.32 1014.48 1014.74 1015.02 1015.16
1015.78 1015.49 1015.30 1015.73 1016.19 1016.01 1015.96 1016.55 1017.23 1017.28 1016.96 1016.22 1015.77 1015.31 1015.43 1015.83 1016.09 1016.25 1016.50 1016.98 1017.50 1018.21 1018.90 1019.33 1019.82 1020.10 1020.22 1020.64 1021.04 1021.39 1022.38 1023.75 1024.81 1025.22 1024.51 1023.51 1022.55 1017.65 1015.38 1014.83 1015.03 1015.22 1015.40 1015.42 1015.60
1015.69 1015.58 1015.65 1015.77 1016.10 1016.17 1016.38 1017.45 1018.18 1017.29 1016.96 1016.39 1016.10 1015.88 1015.91 1016.10 1016.27 1016.49 1016.91 1017.27 1017.58 1018.17 1019.18 1019.84 1020.67 1020.90 1021.24 1021.53 1021.88 1022.57 1023.11 1024.05 1025.46 1026.90 1025.62 1024.42 1021.77 1016.99 1015.84 1015.46 1015.56 1015.82 1016.06 1016.01 1016.11
1015.57 1016.00 1016.28 1016.50 1016.16 1016.22 1017.16 1018.10 1018.02 1017.75 1017.43 1016.94 1016.53 1016.40 1016.22 1016.26 1016.64 1016.71 1017.20 1017.57 1017.81 1018.17 1018.36 1019.58 1020.80 1021.45 1021.75 1021.99 1022.60 1023.15 1023.77 1024.28 1025.95 1028.12 1026.78 1023.72 1020.61 1017.30 1016.81 1016.58 1016.16 1016.37 1016.35 1016.44 1016.30
1016.08 1016.61 1016.93 1016.65 1016.51 1016.83 1017.59 1018.42 1018.33 1017.70 1017.23 1017.06 1016.91 1016.75 1016.71 1016.69 1016.84 1016.86 1017.32 1017.71 1017.89 1018.09 1018.14 1019.28 1020.87 1021.84 1022.18 1022.39 1022.91 1023.12 1023.84 1024.64 1025.80 1027.12 1026.94 1024.28 1022.06 1018.94 1018.02 1017.67 1017.20 1017.05 1016.73 1016.61 1016.33
1016.05 1016.86 1017.19 1017.23 1017.11 1017.56 1018.23 1018.09 1017.89 1017.51 1017.34 1016.97 1016.83 1016.86 1016.88 1016.85 1017.01 1017.34 1017.84 1018.07 1018.12 1018.39 1018.43 1019.18 1020.22 1022.28 1022.43 1022.45 1022.57 1023.55 1023.78 1024.77 1025.57 1026.09 1026.11 1025.13 1021.88 1018.98 1018.61 1018.01 1017.55 1017.26 1016.93 1016.83 1016.60
1016.37 1017.49 1017.30 1016.91 1018.07 1019.00 1018.39 1017.71 1017.19 1017.20 1017.24 1017.20 1016.94 1016.61 1016.65 1016.78 1017.00 1017.28 1017.64 1017.95 1018.12 1018.29 1018.84 1019.43 1020.26 1021.41 1021.77 1021.94 1022.16 1022.49 1022.99 1023.60 1025.11 1026.29 1026.38 1025.26 1021.21 1018.59 1018.17 1017.76 1017.47 1017.29 1016.97 1016.93 1016.56
1016.74 1017.33 1017.57 1017.64 1017.91 1018.73 1018.34 1017.75 1017.39 1017.25 1017.18 1017.04 1017.02 1017.00 1016.84 1016.82 1017.23 1017.41 1017.64 1017.95 1018.27 1018.58 1018.91 1019.29 1020.28 1021.16 1021.71 1022.37 1022.32 1022.50 1022.41 1022.78 1023.68 1024.54 1025.02 1024.37 1020.51 1018.47 1018.08 1017.76 1017.62 1017.68 1017.45 1017.12 1016.79
1017.13 1017.77 1017.74 1017.66 1017.84 1017.46 1017.68 1017.53 1017.35 1017.09 1017.00 1016.88 1016.82 1016.67 1016.76 1017.01 1017.17 1017.60 1018.12 1018.59 1018.78 1019.08 1019.30 1019.60 1020.21 1020.27 1020.24 1020.06 1020.32 1021.27 1021.51 1022.09 1022.58 1023.77 1022.94 1021.57 1019.44 1018.56 1018.09 1017.87 1017.60 1017.51 1017.54 1017.83 1017.65
1017.15 1017.82 1017.93 1017.91 1017.64 1017.27 1017.00 1016.67 1016.87 1016.93 1016.92 1016.80 1016.98 1016.80 1016.58 1016.88 1016.98 1017.33 1017.89 1018.64 1019.18 1019.43 1019.76 1020.05 1020.20 1020.08 1019.52 1019.66 1019.84 1019.94 1020.16 1020.57 1021.23 1020.46 1020.63 1019.04 1018.90 1017.95 1017.88 1018.00 1018.22 1018.53 1018.64 1018.46 1018.05
1018.12 1018.07 1018.07 1017.77 1017.34 1016.94 1016.47 1016.56 1016.11 1015.96 1016.27 1016.63 1016.74 1016.20 1016.36 1016.70 1016.53 1017.04 1017.58 1018.50 1018.64 1019.58 1019.89 1020.48 1020.62 1020.56 1020.16 1019.33 1019.34 1019.55 1018.81 1018.79 1018.94 1018.95 1018.76 1018.42 1017.91 1017.62 1017.75 1018.26 1018.80 1019.12 1019.15 1019.06 1018.80
1018.61 1018.40 1018.05 1017.68 1017.33 1017.03 1016.24 1015.53 1015.48 1015.46 1015.58 1015.49 1015.92 1016.35 1016.65 1016.23 1016.18 1016.39 1016.85 1017.42 1018.07 1018.92 1020.22 1020.85 1020.98 1021.18 1020.37 1019.75 1019.25 1018.80 1016.69 1016.65 1017.21 1017.49 1017.44 1017.50 1017.08 1017.22 1017.93 1018.55 1019.22 1019.61 1019.68 1019.76 1019.67
Thickness
5554 5550 5547 5543 5540 5540 5539 5539 5539 5537 5537 5539 5542 5546 5551 5559 5569 5580 5590 5609 5623 5637 5649 5658 5667 5673 5681 5686 5693 5692 5670 5671 5690 5688 5709 5719 5721 5727 5730 5724 5727 5728 5727 5732 5733
5549 5547 5543 5540 5537 5535 5533 5530 5530 5530 5531 5533 5536 5540 5544 5549 5559 5572 5593 5604 5614 5627 5637 5647 5655 5663 5664 5676 5682 5678 5666 5682 5696 5700 5708 5714 5721 5720 5722 5721 5720 5722 5728 5730 5728
5545 5542 5539 5536 5533 5530 5528 5527 5525 5526 5526 5529 5532 5534 5537 5541 5548 5570 5592 5602 5610 5620 5629 5639 5647 5654 5657 5669 5676 5675 5674 5690 5699 5703 5706 5710 5714 5721 5716 5711 5720 5720 5723 5722 5722
5542 5540 5537 5533 5530 5528 5525 5524 5524 5522 5524 5526 5527 5528 5531 5535 5538 5567 5582 5594 5605 5614 5620 5628 5638 5643 5649 5656 5672 5675 5685 5689 5695 5700 5701 5704 5712 5715 5714 5723 5729 5727 5724 5720 5717
5543 5539 5534 5531 5529 5526 5522 5520 5522 5522 5522 5522 5523 5524 5525 5527 5539 5562 5576 5588 5600 5608 5614 5622 5631 5640 5646 5656 5666 5672 5678 5685 5688 5693 5697 5703 5705 5708 5713 5721 5723 5722 5718 5715 5713
5544 5539 5535 5532 5529 5527 5524 5521 5523 5523 5521 5522 5521 5521 5520 5522 5551 5558 5570 5583 5592 5602 5609 5619 5627 5637 5643 5649 5660 5665 5670 5675 5682 5686 5690 5694 5699 5706 5716 5717 5715 5713 5711 5709 5707
5547 5541 5537 5533 5531 5528 5526 5523 5525 5524 5522 5523 5523 5522 5520 5529 5550 5556 5564 5577 5588 5599 5605 5616 5625 5631 5642 5645 5652 5656 5660 5669 5674 5680 5684 5686 5691 5700 5709 5710 5708 5706 5704 5703 5702
5551 5545 5540 5538 5536 5532 5530 5527 5526 5526 5525 5526 5526 5523 5525 5545 5549 5555 5561 5570 5583 5595 5607 5615 5621 5625 5632 5641 5642 5645 5648 5649 5665 5672 5677 5681 5676 5704 5702 5701 5701 5699 5697 5698 5700
5555 5549 5545 5544 5541 5537 5535 5532 5531 5529 5530 5529 5527 5528 5531 5551 5548 5550 5558 5570 5577 5590 5602 5611 5617 5615 5625 5624 5621 5626 5630 5643 5659 5660 5667 5671 5676 5696 5693 5692 5693 5694 5693 5693 5694
5559 5553 5549 5549 5547 5543 5541 5539 5536 5533 5532 5532 5533 5530 5548 5549 5550 5552 5561 5570 5577 5586 5592 5600 5599 5600 5605 5607 5605 5624 5636 5644 5655 5654 5659 5662 5668 5678 5685 5687 5688 5690 5689 5688 5688
5565 5560 5555 5553 5552 5549 5547 5542 5535 5534 5538 5539 5542 5542 5547 5552 5553 5557 5567 5574 5578 5580 5580 5587 5592 5590 5612 5622 5634 5633 5639 5645 5643 5645 5652 5652 5654 5677 5679 5680 5684 5685 5684 5684 5684
5572 5567 5562 5560 5557 5554 5551 5547 5545 5544 5539 5544 5547 5550 5552 5552 5559 5564 5572 5565 5567 5566 5580 5575 5587 5595 5605 5618 5628 5634 5636 5639 5638 5640 5645 5636 5650 5673 5677 5681 5687 5689 5684 5680 5679
5576 5574 5570 5567 5563 5558 5552 5551 5549 5548 5545 5553 5549 5547 5551 5555 5555 5561 5564 5559 5561 5566 5570 5581 5584 5594 5605 5605 5617 5615 5629 5630 5637 5632 5629 5626 5644 5663 5681 5679 5684 5680 5679 5677 5671
5581 5578 5576 5575 5568 5562 5556 5553 5551 5551 5521 5552 5554 5555 5553 5555 5546 5556 5556 5555 5565 5565 5564 5569 5582 5594 5597 5599 5600 5621 5614 5622 5625 5616 5614 5609 5610 5645 5671 5672 5676 5672 5668 5665 5663
5586 5583 5580 5580 5569 5565 5560 5556 5554 5552 5491 5553 5556 5558 5557 5556 5558 5548 5550 5557 5562 5560 5566 5567 5576 5584 5591 5591 5596 5605 5606 5607 5607 5579 5590 5606 5576 5635 5653 5667 5676 5666 5666 5660 5655
5591 5590 5586 5580 5574 5570 5566 5562 5557 5527 5499 5547 5558 5557 5557 5557 5559 5555 5552 5555 5560 5563 5561 5560 5567 5572 5581 5580 5588 5589 5594 5583 5565 5562 5558 5596 5586 5612 5647 5658 5663 5658 5653 5650 5646
5599 5597 5593 5585 5579 5574 5571 5563 5527 5527 5552 5551 5552 5560 5559 5556 5559 5561 5565 5563 5563 5562 5571 5567 5563 5569 5576 5584 5586 5586 5575 5554 5570 5546 5592 5530 5553 5625 5649 5649 5645 5644 5639 5636 5635
5604 5601 5598 5593 5586 5580 5573 5555 5527 5561 5558 5560 5558 5560 5558 5559 5560 5561 5562 5560 5565 5565 5543 5550 5563 5561 5562 5572 5582 5568 5563 5568 5572 5567 5566 5528 5567 5627 5638 5632 5631 5631 5626 5624 5623
5607 5601 5597 5592 5591 5588 5571 5521 5551 5561 5560 5562 5563 5561 5563 5564 5556 5564 5562 5547 5566 5566 5575 5561 5573 5556 5555 5562 5562 5569 5546 5558 5498 5448 5515 5550 5595 5627 5624 5616 5614 5615 5616 5611 5612
5603 5597 5593 5593 5592 5585 5567 5567 5563 5566 5567 5566 5569 5566 5559 5564 5562 5571 5568 5568 5571 5568 5572 5572 5552 5549 5552 5558 5553 5566 5553 5552 5508 5563 5542 5554 5575 5584 5597 5602 5603 5604 5605 5603 5605
5602 5598 5592 5589 5589 5575 5557 5569 5571 5574 5573 5576 5574 5571 5569 5571 5569 5567 5566 5567 5568 5568 5572 5569 5563 5549 5550 5547 5553 5543 5535 5534 5524 5518 5511 5512 5561 5573 5563 5599 5599 5594 5595 5592 5595
5595 5596 5590 5591 5573 5542 5572 5582 5588 5581 5576 5577 5577 5579 5578 5573 5574 5568 5576 5570 5568 5571 5576 5565 5546 5528 5564 5552 5551 5553 5561 5550 5521 5529 5477 5476 5539 5596 5588 5593 5591 5583 5582 5582 5587
5592 5587 5582 5581 5577 5567 5571 5584 5583 5583 5582 5579 5579 5579 5578 5578 5580 5575 5573 5567 5566 5570 5567 5564 5554 5520 5558 5540 5541 5543 5544 5544 5526 5513 5495 5505 5547 5586 5580 5576 5572 5572 5569 5573 5576
5583 5583 5579 5571 5564 5579 5583 5583 5581 5578 5582 5582 5582 5581 5581 5579 5575 5574 5570 5561 5563 5564 5568 5561 5547 5570 5570 5581 5558 5555 5545 5535 5542 5488 5515 5515 5547 5575 5572 5563 5561 5560 5560 5561 5560
5569 5576 5570 5574 5579 5578 5582 5582 5581 5578 5574 5575 5577 5576 5581 5580 5578 5577 5571 5562 5557 5559 5552 5551 5565 5547 5556 5555 5554 5565 5565 5538 5523 5545 5547 5571 5528 5568 5565 5546 5553 5549 5547 5546 5544
5563 5564 5551 5557 5563 5575 5576 5571 5579 5582 5572 5573 5574 5577 5571 5577 5579 5568 5562 5557 5566 5547 5552 5528 5545 5537 5546 5550 5536 5539 5552 5559 5547 5557 5543 5555 5554 5554 5551 5542 5534 5527 5525 5525 5525
5535 5538 5545 5551 5552 5560 5564 5576 5574 5576 5573 5577 5571 5563 5561 5564 5569 5574 5564 5560 5560 5543 5528 5521 5521 5521 5520 5533 5534 5521 5557 5563 5550 5541 5550 5544 5551 5543 5537 5524 5514 5508 5504 5502 5500